GFSGBSN_prec_cloud_081.txt.gz
Cloud_Cover
99 100 100 97 37 79 100 100 100 100 100 100 100 100 100 100 100 100 100 100 100 100 100 100 100 100 100 100 100 100 43 98 100 100 17 10 68 6 9 51 70 78 100 94 84 83 29
100 100 82 72 100 100 100 100 100 100 100 100 100 100 100 100 74 100 100 100 100 100 75 93 100 100 100 100 100 100 100 86 88 100 100 91 98 19 100 100 100 100 100 100 100 100 100
100 83 100 100 100 100 77 97 65 95 100 100 100 100 100 100 84 27 100 100 95 6 5 60 100 99 100 99 13 5 17 91 100 100 100 100 100 100 100 100 99 100 100 100 100 100 100
100 99 91 99 100 90 99 100 50 83 94 34 100 100 94 61 51 3 4 2 5 5 2 95 100 100 99 50 38 50 100 100 100 100 100 99 100 95 100 100 100 100 100 100 100 100 100
96 99 100 99 86 98 100 100 100 53 66 92 76 5 4 0 86 100 5 35 94 95 100 100 44 49 5 53 65 44 100 100 100 100 100 81 85 100 100 100 100 100 100 100 100 100 100
100 100 100 98 94 100 100 100 100 99 100 23 7 4 49 86 83 100 100 100 99 17 100 31 12 47 2 5 17 8 100 100 100 100 100 100 97 100 100 100 100 100 100 99 100 100 18
95 100 100 100 100 100 100 100 100 100 90 98 92 100 45 100 32 100 100 100 72 15 78 43 5 4 81 29 10 100 100 100 100 100 100 100 94 100 100 100 100 100 100 100 100 100 12
100 100 100 100 100 100 100 100 100 97 88 99 100 96 12 82 100 100 92 8 12 61 97 46 4 5 62 6 56 100 96 100 100 100 100 99 100 100 100 100 100 100 100 100 100 100 77
100 100 100 100 100 100 100 100 100 100 100 98 31 39 100 88 99 99 85 69 23 25 99 96 89 21 5 6 96 100 54 100 100 100 100 100 100 100 100 100 100 100 100 100 100 100 86
100 100 100 100 100 100 100 100 100 100 100 100 100 100 100 100 100 22 22 100 10 7 9 10 67 100 90 5 5 7 100 100 100 100 100 100 100 100 100 100 97 99 100 100 100 64 100
100 100 100 100 100 100 100 100 100 100 100 100 100 100 100 61 94 48 7 96 100 92 40 7 100 100 100 100 97 6 74 100 100 100 100 100 100 100 100 100 94 100 100 100 100 100 100
100 100 100 100 100 100 100 100 100 100 100 100 100 100 95 100 81 68 73 60 17 5 0 0 1 26 62 100 100 100 8 100 100 100 100 100 100 100 100 100 100 100 100 100 100 100 100
100 100 100 100 100 100 100 100 100 100 100 100 100 100 100 20 84 67 73 18 7 2 0 1 0 0 0 1 42 37 100 100 100 100 100 100 100 100 100 100 100 100 100 100 100 100 72
100 100 100 100 100 100 100 100 100 100 87 99 100 100 17 99 98 26 5 3 0 0 0 0 0 0 0 0 1 0 11 100 100 51 100 100 100 100 100 100 100 100 100 100 100 98 93
100 100 100 100 100 100 100 100 100 100 100 98 66 99 100 100 5 5 2 0 0 5 4 0 0 5 5 5 5 4 7 46 100 100 100 100 100 100 100 100 100 100 100 99 73 42 94
100 100 100 100 100 100 100 98 100 99 88 95 68 97 94 14 6 1 4 1 1 2 0 1 1 4 1 0 1 83 70 75 52 100 100 100 100 100 100 100 100 100 100 100 98 73 86
100 100 100 100 100 100 100 94 100 100 50 100 87 6 5 3 0 4 5 1 0 0 0 2 3 0 0 2 5 5 70 97 86 84 100 100 100 100 100 100 100 100 100 99 97 95 70
100 100 100 100 100 100 100 100 100 99 100 100 19 5 36 5 12 8 5 5 5 1 3 3 5 5 5 56 90 80 5 100 100 100 97 100 100 100 100 100 100 100 100 100 100 95 91
100 100 100 100 100 100 100 100 100 100 100 74 14 26 4 5 48 83 54 23 5 1 0 5 5 5 5 5 5 76 62 100 100 100 100 86 100 100 100 100 100 100 100 100 100 100 99
100 100 100 100 100 100 100 100 100 88 16 5 14 5 29 33 51 82 40 20 7 4 0 5 5 5 24 7 5 22 67 100 100 100 100 93 99 100 100 100 100 100 100 100 95 92 94
100 100 100 100 100 100 100 100 81 12 5 4 22 42 13 26 97 91 61 5 5 5 5 5 42 98 100 93 24 5 98 100 100 100 100 100 100 100 100 100 100 100 100 100 98 27 55
100 100 100 100 100 100 100 64 5 5 5 16 39 50 42 6 5 5 3 3 0 5 43 2 5 92 75 65 94 100 100 100 100 100 100 100 100 100 98 100 100 100 100 100 100 100 98
100 100 100 100 100 80 40 5 5 5 5 5 93 76 40 5 6 5 4 0 3 5 5 32 32 5 5 30 80 100 100 100 100 100 100 100 100 100 100 100 100 50 5 64 100 100 86
100 100 100 100 100 92 83 5 6 5 5 3 5 31 80 18 8 19 3 3 5 5 5 5 5 68 13 21 8 31 50 100 100 100 97 100 90 92 100 100 100 100 47 31 96 100 77
100 100 100 100 100 100 78 12 7 95 79 5 5 22 8 78 5 46 59 41 3 4 5 5 10 42 48 100 100 90 84 100 100 100 100 100 100 61 100 100 99 100 100 95 97 35 61
100 100 100 100 100 98 94 38 6 21 85 75 94 90 89 76 9 18 81 100 19 7 38 5 8 100 90 100 100 97 21 77 100 100 100 100 98 100 100 100 100 100 91 88 100 65 98
100 100 100 100 100 100 47 5 5 27 27 76 100 97 100 99 6 68 98 100 38 5 25 17 97 100 100 100 100 100 62 55 98 100 100 100 70 5 98 100 84 100 57 91 94 75 97
88 100 100 100 70 18 36 49 52 6 27 63 99 100 100 100 38 80 100 80 65 5 52 94 100 100 100 100 100 100 29 49 36 83 66 5 90 50 81 69 100 100 38 39 99 100 100
100 100 100 100 5 54 68 5 5 5 5 33 95 98 100 100 99 99 93 5 80 16 81 100 100 100 100 100 100 100 100 75 82 99 29 75 96 60 19 9 100 100 100 100 100 100 100

GFSGBSN_prec_cloud_087.txt.gz
Cloud_Cover
100 100 100 100 100 100 90 38 43 100 100 100 100 100 100 100 100 100 100 100 100 99 100 100 100 100 100 100 98 100 52 98 96 95 96 95 97 98 25 24 10 28 56 93 100 97 5
100 100 100 100 100 100 100 100 52 88 78 100 100 100 100 100 100 100 100 100 100 100 100 100 100 100 100 100 100 98 100 100 95 7 82 82 61 100 100 16 6 72 100 58 85 100 60
100 100 100 100 100 100 100 100 100 96 99 100 100 100 100 76 100 100 100 66 98 99 100 100 100 100 100 100 100 100 100 66 20 96 100 100 100 100 28 5 5 5 20 80 100 100 100
100 100 100 100 100 100 100 100 100 100 100 49 16 8 35 100 20 100 100 100 51 58 51 32 94 99 94 100 87 17 33 18 67 98 100 100 80 17 92 84 15 99 19 5 71 100 100
100 100 100 100 100 100 100 100 100 92 54 34 16 5 17 95 100 52 100 100 100 100 100 90 52 100 100 93 20 27 20 5 28 100 97 92 13 5 77 82 83 86 35 100 100 100 100
100 100 100 100 100 100 100 100 100 100 100 100 97 61 95 83 27 98 100 100 82 99 64 34 11 64 67 79 5 5 13 80 100 80 32 1 4 5 17 94 41 100 79 80 100 100 98
100 100 100 100 100 100 100 100 100 100 100 100 100 100 93 100 99 100 39 71 37 35 38 5 59 100 66 5 0 20 100 92 45 5 4 38 0 1 77 49 82 100 100 100 100 95 99
100 100 100 100 100 100 100 100 100 100 100 100 100 100 100 100 92 96 43 5 5 7 82 100 100 81 68 10 5 12 5 0 0 71 40 0 0 5 14 61 100 100 100 100 100 100 71
100 100 100 100 100 100 100 100 100 100 100 100 100 100 100 100 100 100 100 100 100 100 100 100 100 24 5 5 3 0 1 79 94 14 0 5 31 81 67 41 100 100 100 100 96 100 100
100 100 100 100 100 100 100 100 100 100 100 100 100 100 100 100 100 100 100 100 100 100 100 100 10 9 5 0 1 0 5 26 3 0 2 1 62 63 99 46 92 100 100 100 100 100 100
100 100 100 100 100 100 100 100 100 100 100 100 100 100 100 100 100 100 100 100 99 95 31 4 5 5 0 0 0 35 2 0 0 0 2 8 26 95 19 89 98 96 100 100 100 100 100
100 100 100 100 100 100 100 100 100 100 100 100 100 100 100 100 100 100 100 98 60 14 7 5 5 5 0 0 2 0 0 0 0 0 0 0 8 40 93 83 100 100 100 100 100 100 100
100 100 100 100 100 100 100 99 100 100 100 100 100 100 97 100 100 100 100 26 13 15 5 4 0 1 4 2 4 0 0 4 8 76 18 55 0 3 100 83 100 100 100 100 100 100 100
100 100 100 100 100 100 100 100 100 100 100 100 100 100 100 100 82 29 8 26 76 31 5 5 5 2 5 0 0 0 0 0 6 98 99 100 100 88 12 60 100 100 100 100 100 100 100
100 100 100 100 100 100 100 100 100 100 100 100 100 100 100 77 99 14 5 78 5 5 5 5 35 10 5 0 0 0 0 3 29 30 96 85 95 4 84 67 78 100 100 100 100 100 100
100 100 100 100 100 100 100 100 100 100 100 100 100 100 99 100 69 27 34 56 22 5 5 5 13 5 5 0 0 0 0 14 14 22 32 4 24 97 81 6 94 100 100 100 100 100 100
100 100 100 100 100 100 100 100 100 100 100 100 100 100 100 94 100 100 58 6 5 5 5 5 5 5 2 4 8 4 4 9 5 31 98 82 64 78 97 5 98 100 100 100 100 100 100
100 100 100 100 100 100 100 100 100 100 100 100 100 100 100 80 100 78 98 32 5 5 5 3 4 8 70 84 100 100 95 100 45 60 24 100 82 27 100 91 82 100 100 100 100 100 100
100 100 100 100 100 100 100 100 100 100 100 100 100 100 90 97 90 63 6 5 5 5 5 5 5 5 16 100 98 100 100 79 84 57 50 83 100 56 100 100 99 100 100 100 100 100 100
100 100 100 100 100 100 100 100 100 100 100 100 100 100 94 42 6 21 5 5 5 5 4 6 5 20 100 100 100 70 100 99 54 82 36 100 75 97 100 100 93 100 100 100 100 100 100
100 100 100 100 100 100 100 100 100 100 100 100 97 82 23 94 40 5 5 2 5 5 5 41 77 82 80 99 100 100 100 98 100 38 92 100 96 95 71 100 100 100 100 100 100 100 100
100 100 100 100 100 100 100 100 100 100 100 100 98 96 14 10 5 5 3 5 2 5 34 30 100 100 100 100 100 100 100 100 90 100 96 100 100 84 100 100 100 100 100 100 100 100 100
100 100 100 100 100 100 100 100 100 100 100 100 88 94 31 9 73 70 51 5 5 5 6 5 27 91 98 100 100 100 95 88 98 100 100 100 100 100 100 99 100 100 100 100 100 100 100
100 100 100 100 100 100 100 100 100 100 100 100 49 44 95 63 87 62 5 23 76 82 55 5 22 90 30 99 87 43 5 20 100 100 100 100 100 100 98 83 100 100 100 100 100 100 100
100 100 100 100 100 100 100 100 100 100 100 100 46 97 97 98 90 26 82 99 100 99 95 99 94 100 100 100 72 5 48 100 100 100 100 100 100 100 100 100 96 100 100 100 100 100 100
100 100 100 100 100 100 100 100 100 100 100 65 100 95 100 91 96 30 96 97 100 100 90 90 97 98 86 90 100 77 100 100 100 100 100 100 100 100 100 100 100 100 100 100 100 100 100
100 100 100 100 100 100 100 100 100 100 95 55 95 15 98 97 96 61 98 95 99 100 93 96 74 91 66 96 100 100 79 100 100 100 100 100 100 100 100 100 100 100 100 100 100 100 100
100 100 100 100 100 100 100 100 100 100 34 47 31 72 52 64 76 96 89 100 100 100 100 100 61 91 100 100 100 100 100 100 100 100 100 100 100 100 54 99 100 100 100 100 100 100 100
100 100 100 100 100 100 100 100 96 51 5 72 96 57 43 85 54 17 8 9 36 97 99 92 100 100 100 100 94 95 100 100 100 100 100 100 100 100 63 100 100 100 100 97 98 100 100

GFSGBSN_prec_cloud_093.txt.gz
Cloud_Cover
100 99 99 92 100 94 100 100 100 99 100 100 100 100 100 100 100 100 100 100 99 67 100 100 100 100 100 100 97 84 60 20 19 8 90 100 100 100 94 55 99 100 100 46 4 3 0
100 100 100 100 100 100 100 100 100 100 100 100 100 100 100 100 100 100 100 100 100 98 100 44 23 98 64 94 100 89 79 36 9 37 65 100 100 100 100 100 100 100 100 30 5 0 3
100 100 98 100 100 100 100 100 100 100 100 100 100 100 100 100 100 100 100 100 100 100 100 77 51 95 85 83 42 36 22 37 43 76 31 40 97 98 100 98 22 9 10 3 5 3 0
100 100 100 100 100 100 100 100 100 100 100 91 100 100 100 100 100 100 100 100 100 100 100 100 100 100 99 27 5 6 5 5 51 60 62 19 5 52 11 62 63 90 92 60 10 0 0
100 100 100 100 100 98 100 100 100 100 100 100 100 100 100 100 100 100 100 100 98 100 100 100 74 90 53 52 14 10 5 5 5 5 5 5 5 22 5 5 49 12 95 4 5 5 3
100 100 100 100 100 100 99 100 100 100 100 100 82 100 100 100 100 100 95 82 100 100 100 93 100 68 38 74 100 100 100 100 90 5 5 69 24 74 33 14 66 68 11 5 1 3 1
100 100 100 100 100 100 100 100 100 100 96 100 100 100 100 100 100 100 100 100 100 100 100 100 100 83 13 6 100 76 5 5 5 5 89 67 99 100 39 5 5 5 0 0 0 0 0
98 100 100 100 100 100 100 100 100 100 100 100 100 100 100 100 100 100 100 100 100 90 100 100 99 80 14 6 14 15 9 68 89 100 100 100 100 100 52 19 5 5 0 0 0 0 0
100 100 100 100 100 100 100 100 100 100 100 100 100 100 100 100 100 100 100 100 100 100 100 100 100 94 85 70 75 98 100 100 100 100 100 100 100 95 100 97 8 0 0 1 0 1 0
100 100 100 100 100 100 100 100 100 100 100 99 100 100 100 100 100 100 100 100 100 100 100 100 100 100 100 100 100 100 100 100 98 99 100 99 100 100 92 66 86 4 0 0 3 89 14
100 100 100 100 100 100 100 100 100 100 93 97 100 100 100 100 98 100 100 100 100 100 100 100 100 100 100 98 64 98 100 100 100 100 97 92 32 0 0 0 5 3 100 6 5 54 5
100 100 100 100 100 100 100 100 98 52 100 100 100 100 100 100 100 100 98 100 100 100 100 100 100 100 100 100 100 42 56 79 18 3 1 0 0 2 5 0 0 0 5 26 7 5 2
100 100 100 100 100 100 100 100 93 100 100 100 100 100 100 100 100 100 100 97 100 100 78 20 96 47 30 11 85 60 8 5 1 12 0 1 1 5 4 4 0 5 12 34 13 5 2
100 100 100 100 100 100 100 100 100 100 100 100 100 100 100 100 100 100 100 100 100 100 86 98 100 11 33 69 6 5 5 5 5 0 0 0 0 9 68 58 85 52 98 32 25 0 18
100 100 100 100 100 100 100 100 100 100 100 100 100 100 99 100 100 100 100 100 100 100 100 100 100 72 100 45 80 9 46 98 14 5 4 4 0 0 2 59 80 39 4 21 100 12 5
100 100 100 100 100 100 100 100 100 100 100 100 100 100 100 100 100 100 100 94 100 100 100 100 100 100 100 100 93 5 5 22 4 5 5 30 6 0 1 44 24 76 40 4 34 100 96
100 100 100 100 100 100 100 100 100 100 100 100 100 100 100 100 100 100 100 72 93 100 100 100 100 100 100 100 87 5 5 2 0 0 2 5 17 2 0 0 3 98 100 98 84 90 40
100 100 100 100 100 100 100 100 100 100 100 100 100 100 100 100 100 100 100 100 91 100 100 100 100 100 100 81 5 5 2 5 5 0 1 27 77 5 0 0 0 6 100 100 100 33 97
100 100 100 100 100 100 100 100 100 100 100 100 100 100 100 100 100 100 100 100 100 100 100 100 100 99 100 38 5 0 34 57 6 9 5 3 4 2 0 0 3 6 100 100 100 100 100
100 100 100 100 100 100 100 100 100 100 100 100 100 100 100 100 100 100 100 100 100 100 68 39 12 6 22 5 76 78 26 61 4 21 5 2 4 0 0 21 98 38 59 100 100 100 100
100 100 100 100 100 100 100 100 100 100 100 100 100 100 100 100 100 100 100 99 48 99 100 34 5 81 14 4 4 0 4 7 60 5 5 6 76 5 5 14 93 10 97 100 96 100 100
100 100 100 100 100 100 100 100 100 100 100 100 100 100 100 100 69 99 98 100 39 5 12 5 5 5 5 16 16 15 5 0 4 1 5 73 84 31 5 0 12 98 100 100 100 100 100
100 100 100 100 100 100 100 100 100 100 100 100 100 100 100 100 100 100 100 98 96 46 5 4 3 0 0 0 0 0 0 0 0 0 0 59 97 90 7 19 58 100 100 100 100 100 100
100 100 100 100 100 100 100 100 100 100 100 100 100 100 100 100 100 100 100 100 83 7 5 2 1 33 29 7 0 0 0 0 0 0 0 5 20 98 60 78 100 100 100 100 100 100 100
100 100 100 100 100 100 100 100 100 100 100 100 100 100 95 100 100 100 86 11 5 5 18 92 88 93 8 5 2 0 0 0 1 2 4 4 13 100 100 100 100 100 100 100 100 100 100
100 100 100 100 100 100 100 100 100 100 100 100 100 100 93 100 100 89 5 5 5 0 0 3 5 5 3 5 5 48 63 98 100 97 100 100 100 100 100 100 100 100 100 100 100 100 100
100 100 100 100 100 100 100 100 100 100 100 100 100 86 72 95 9 17 5 5 3 2 4 5 4 10 5 13 82 94 76 100 100 100 100 100 100 100 100 100 100 100 97 100 87 100 100
100 100 100 100 100 100 100 100 100 100 99 100 100 74 63 54 63 43 5 5 5 5 5 4 4 34 66 94 96 44 78 100 100 100 100 100 100 100 100 100 100 100 100 100 100 100 100
100 100 100 100 100 100 100 100 100 100 100 100 53 55 99 100 65 5 5 5 0 1 5 4 35 21 100 100 100 100 100 100 100 100 100 100 100 100 100 100 100 100 100 100 100 100 100

GFSGBSN_prec_cloud_096.txt.gz
Cloud_Cover
100 100 100 100 100 100 100 100 100 100 100 95 67 32 96 80 100 100 100 67 100 100 100 100 100 100 100 100 100 100 100 100 72 89 78 30 55 5 7 9 5 6 50 84 100 100 100
92 96 92 100 100 100 100 100 100 100 82 100 100 99 19 72 100 94 100 100 100 76 100 82 87 100 100 100 100 100 98 54 9 13 6 11 7 32 54 46 18 50 42 33 13 84 90
100 100 96 98 100 100 100 100 100 100 92 100 66 92 46 63 94 100 100 100 100 100 99 13 100 100 100 100 100 99 100 100 99 100 100 36 60 76 88 56 5 9 35 88 20 5 5
84 90 100 100 100 100 100 100 100 100 100 100 100 99 62 16 50 100 100 100 100 100 97 22 74 100 98 99 100 100 100 100 100 73 95 6 7 5 18 38 17 21 5 19 5 11 9
84 64 100 100 100 100 100 100 100 100 100 100 100 89 41 99 50 33 100 100 99 100 42 47 42 97 100 100 100 100 100 84 100 100 100 99 41 82 100 90 7 5 4 23 66 98 82
86 100 100 100 100 100 100 100 100 100 100 100 100 96 100 100 76 83 100 88 97 72 62 87 36 98 64 91 60 85 51 51 69 46 39 19 12 30 88 10 5 5 5 6 99 100 80
83 100 100 100 100 100 100 100 100 100 100 100 100 73 16 94 99 30 40 67 87 10 94 77 58 100 100 100 89 64 40 5 20 28 19 6 5 84 7 5 5 52 50 100 100 100 83
4 100 100 99 100 100 100 100 100 100 100 94 100 92 98 96 100 98 83 100 100 92 17 9 59 100 90 91 88 100 27 82 14 14 57 35 16 30 11 92 99 100 100 100 100 100 100
24 54 41 100 100 100 100 100 100 100 100 98 100 91 100 100 100 66 63 36 100 89 100 100 74 87 100 86 92 92 40 5 5 88 46 6 95 95 99 100 100 100 100 100 98 92 40
80 0 8 67 100 100 100 100 100 100 100 100 100 100 100 100 34 43 76 99 100 100 100 100 100 94 100 99 98 85 96 96 83 83 90 84 100 84 34 86 100 100 100 94 24 2 0
46 14 54 100 100 100 100 100 100 100 100 100 100 100 100 70 100 74 100 100 100 68 100 98 100 79 6 62 100 100 100 69 100 100 100 100 100 96 98 98 10 78 6 43 5 82 5
85 69 100 100 100 100 100 100 100 100 100 100 99 100 100 100 100 100 95 100 98 99 100 15 96 96 93 100 100 100 78 95 100 100 100 100 100 98 98 28 3 5 3 5 5 56 63
100 100 100 100 100 100 100 100 100 100 100 100 100 99 100 100 100 100 100 100 100 100 69 7 16 100 100 82 97 100 77 99 94 38 45 6 95 91 5 0 5 5 32 5 6 3 0
100 100 100 100 100 100 100 100 100 100 100 100 100 100 100 100 100 100 100 100 100 100 60 74 100 100 96 46 100 98 29 12 32 37 14 5 5 5 14 5 5 37 26 88 90 5 4
100 100 100 100 100 100 100 100 100 100 100 100 100 100 100 100 100 100 100 100 100 100 100 100 96 100 67 49 100 100 98 20 12 15 5 5 5 4 5 5 78 6 67 89 100 51 81
100 100 100 100 100 100 100 100 100 100 100 100 100 100 100 100 100 100 100 100 100 100 100 100 100 82 75 32 50 99 100 64 34 52 79 17 0 0 1 0 21 94 91 50 90 100 95
100 100 100 100 100 100 100 100 100 100 100 100 100 100 100 100 100 100 100 100 100 100 100 97 99 69 85 91 84 26 53 70 73 79 17 3 2 0 1 0 0 62 67 100 100 88 92
100 100 100 100 100 100 100 100 100 100 100 100 100 100 100 100 100 100 100 100 100 100 100 100 92 100 99 100 100 100 86 5 2 0 0 0 0 5 0 0 0 0 3 97 100 100 30
100 100 100 100 100 100 100 100 100 100 100 100 100 100 100 100 100 100 100 100 100 100 100 96 52 87 100 100 100 95 77 25 5 3 1 2 3 4 0 7 94 74 100 72 88 100 100
100 100 100 100 100 100 100 100 100 100 100 100 100 100 100 100 100 100 100 100 100 100 100 100 100 100 100 59 5 7 5 18 54 5 5 5 5 5 18 3 4 100 100 99 94 88 87
100 100 100 100 100 100 100 100 100 100 100 100 100 100 100 100 100 100 100 100 100 100 100 100 100 100 72 5 5 17 6 0 2 5 5 5 12 5 5 5 5 26 60 100 36 38 100
100 100 100 100 100 100 100 100 100 100 100 100 100 100 100 100 100 100 100 100 100 100 100 100 71 11 5 5 14 5 0 0 0 0 5 68 5 15 4 0 0 80 5 91 100 85 93
100 100 100 100 100 100 100 100 100 100 100 100 100 100 100 100 100 100 100 100 100 100 100 70 6 5 8 45 3 0 0 0 0 0 0 22 5 5 4 1 5 12 2 77 95 100 100
100 100 100 100 100 100 100 100 100 100 100 100 100 100 100 100 100 100 100 100 48 95 42 5 5 17 6 5 3 0 0 0 0 0 0 0 5 5 9 45 91 100 97 100 100 100 100
100 100 100 100 100 100 100 100 100 100 100 100 100 100 100 100 100 100 100 100 100 11 5 5 5 5 5 5 3 4 3 3 0 5 2 0 21 97 48 100 100 100 100 100 100 100 100
100 100 100 100 100 100 100 100 100 100 100 100 100 100 100 100 100 100 100 100 47 5 0 1 1 1 0 5 20 18 49 8 18 71 74 100 100 100 100 100 100 100 100 100 100 100 100
100 100 100 100 100 100 100 100 100 100 100 100 100 100 100 100 100 100 76 11 5 3 5 4 0 2 1 53 100 84 62 97 87 100 100 100 93 100 100 100 100 100 100 100 100 100 100
100 100 100 100 100 100 100 100 100 100 100 100 100 100 100 99 100 63 5 5 5 5 5 1 3 5 16 76 78 96 100 100 100 100 100 100 100 100 100 100 100 100 100 100 100 100 100
100 100 100 100 100 100 100 100 100 100 100 100 100 100 100 68 34 5 5 5 5 4 4 2 5 80 100 100 100 100 100 100 100 100 100 100 100 100 100 100 100 100 100 100 100 100 100

GFSGBSN_prec_cloud_099.txt.gz
Cloud_Cover
100 100 100 100 100 48 68 99 100 98 90 100 81 100 100 28 88 41 5 5 5 7 44 17 97 100 49 96 98 5 100 100 100 100 100 73 100 100 100 100 31 34 28 23 97 10 5
100 100 100 100 93 48 83 95 91 59 98 100 100 100 100 100 22 5 61 48 6 5 26 11 21 100 100 99 83 98 93 81 100 100 100 100 100 74 36 95 100 100 100 61 5 5 5
96 92 99 99 100 100 100 100 86 94 84 100 100 100 100 94 10 5 8 5 5 72 100 68 12 100 100 98 6 99 100 99 38 49 99 100 100 100 6 100 100 100 82 9 26 5 5
26 11 9 88 92 78 100 100 100 100 98 100 100 100 100 67 32 5 14 5 6 5 59 92 31 95 100 97 100 95 92 99 80 67 100 98 88 76 97 93 100 100 30 74 19 5 5
5 5 71 45 94 54 100 100 100 100 100 100 100 100 100 36 100 84 5 5 5 5 5 8 55 70 74 100 100 84 40 87 80 21 100 21 5 5 52 83 31 40 5 24 47 5 16
5 14 37 42 100 100 98 100 100 100 100 100 100 100 100 51 100 100 32 7 5 10 5 33 59 36 44 13 50 10 5 54 91 65 20 38 5 34 94 15 5 5 13 43 8 45 0
1 46 42 89 0 58 100 100 100 100 100 100 100 100 100 100 100 100 51 33 29 40 5 5 5 5 5 51 100 45 5 5 100 100 82 68 58 98 7 5 32 5 14 5 5 4 0
99 71 33 94 20 5 98 100 100 100 100 100 100 100 100 100 100 100 94 42 52 64 8 5 5 16 92 97 57 31 80 13 5 12 65 77 100 100 99 11 5 27 5 10 10 79 10
39 100 100 100 8 32 99 100 100 100 100 100 100 100 60 100 100 99 99 99 73 100 23 5 5 31 96 21 100 100 73 27 65 62 22 90 96 30 5 5 5 49 11 99 67 95 5
40 100 100 91 0 3 100 100 100 100 100 100 99 100 100 100 100 12 21 97 100 100 69 1 4 5 9 10 5 20 100 100 99 78 26 5 5 5 5 5 27 17 99 100 97 77 22
1 68 97 6 0 43 85 100 100 100 100 100 100 100 100 100 100 100 100 100 100 72 37 0 0 4 1 5 4 5 24 12 100 100 100 100 99 100 100 100 99 44 100 100 100 100 98
63 41 10 48 77 100 100 100 100 100 100 100 100 100 100 100 100 100 100 100 100 98 34 4 30 94 4 6 35 14 5 19 12 67 99 100 100 100 100 100 100 100 100 100 100 100 55
100 100 90 100 100 100 100 100 100 100 100 100 100 100 100 100 98 79 100 100 100 85 2 0 42 82 100 98 10 5 5 27 95 100 100 100 100 100 100 100 100 100 100 62 46 8 0
100 100 100 100 100 100 100 100 100 100 100 100 100 100 100 100 100 100 96 100 87 8 100 30 97 100 100 98 65 96 100 98 100 100 100 100 100 100 100 100 100 100 100 84 43 5 0
100 100 100 100 100 100 100 100 100 100 100 100 100 100 100 100 100 100 100 83 98 100 100 100 100 100 100 71 100 100 100 100 100 100 100 100 100 100 100 100 99 44 15 7 58 0 4
100 100 100 100 100 100 100 100 100 100 100 100 100 100 100 100 100 100 100 100 100 100 100 100 100 100 100 100 92 100 100 93 63 74 93 74 91 91 96 98 89 40 5 22 74 88 78
100 100 100 100 100 100 100 100 100 100 100 100 100 100 100 100 100 100 100 100 100 100 100 100 100 100 100 100 100 100 99 41 5 7 80 95 24 6 5 57 10 2 0 1 8 61 97
100 100 100 100 100 100 100 100 100 100 100 100 100 100 100 100 100 100 100 100 100 100 100 100 100 100 100 100 100 100 98 99 100 100 100 100 24 8 5 4 2 0 0 8 67 6 100
100 100 100 100 100 100 100 100 98 100 100 100 100 100 100 100 100 100 100 100 100 100 100 100 100 100 100 100 100 100 89 49 63 99 91 51 3 2 0 3 0 0 71 66 94 84 63
100 100 100 100 100 100 100 100 100 100 100 100 100 100 100 100 100 100 100 100 100 100 100 100 100 100 100 100 100 90 97 100 100 100 3 0 2 0 0 0 2 5 0 2 95 94 12
100 100 100 100 100 100 100 100 100 100 100 100 100 100 100 100 100 100 100 100 100 100 100 100 100 100 96 26 22 99 100 100 72 7 5 4 5 5 0 3 5 5 0 0 16 4 38
100 100 100 100 100 100 100 100 100 100 100 100 100 100 100 100 100 100 100 100 100 100 100 100 100 85 81 100 93 9 5 9 5 2 2 5 5 5 68 4 0 0 0 0 0 5 59
100 100 100 100 100 100 100 100 100 100 100 100 100 100 100 100 100 100 100 100 100 100 100 100 100 98 40 5 5 5 4 2 0 0 5 39 14 5 4 0 0 0 27 49 0 41 100
100 100 100 100 100 100 100 100 100 100 100 100 100 100 100 100 100 100 100 100 72 87 100 100 100 100 100 6 5 2 0 0 0 0 0 2 5 6 25 5 34 100 100 95 80 100 100
100 100 100 100 100 100 100 100 100 100 100 100 100 100 100 100 100 100 100 100 100 100 100 100 98 52 5 5 3 2 3 1 1 37 57 70 5 59 16 80 100 100 100 100 100 100 100
100 100 100 100 100 100 100 100 100 100 100 100 100 100 100 100 100 100 100 100 100 100 100 13 14 5 2 5 17 46 12 97 100 100 31 31 95 10 100 100 100 100 100 100 100 100 100
100 100 100 100 100 100 100 100 100 100 100 100 100 100 100 100 100 100 100 100 76 58 5 6 5 4 1 65 92 96 34 99 100 99 100 100 97 100 100 100 100 100 100 100 100 100 100
100 100 100 100 100 100 100 100 100 100 100 100 100 100 100 100 100 100 81 87 38 5 5 5 4 5 10 99 83 100 100 100 100 100 100 100 100 100 100 100 100 100 100 100 100 100 100
100 100 100 100 100 100 100 100 100 100 100 100 100 100 100 100 100 98 31 14 14 5 5 5 5 93 90 98 93 100 100 100 100 100 100 100 100 100 100 100 100 100 100 100 100 100 100

GFSGBSN_prec_cloud_105.txt.gz
Cloud_Cover
100 100 100 100 100 100 100 100 100 100 100 100 100 100 100 100 100 100 100 100 100 100 7 3 5 6 5 5 4 0 4 5 8 3 5 6 19 30 14 60 100 99 97 100 100 100 100
100 100 100 100 100 100 100 100 100 100 100 100 100 100 100 100 100 100 100 100 100 100 97 1 0 5 1 4 4 4 5 2 1 3 3 5 5 8 20 90 100 100 99 96 39 100 100
100 100 100 100 100 100 100 100 100 80 96 98 100 100 100 100 100 100 100 100 100 94 50 3 0 42 28 5 4 5 5 2 5 4 5 5 5 31 65 100 100 100 100 90 100 100 99
100 100 100 100 100 100 96 100 100 100 100 100 100 100 100 100 100 100 100 100 100 100 100 44 17 56 1 13 5 5 5 5 3 4 5 0 4 4 16 98 100 100 99 100 88 45 10
68 100 100 100 100 93 100 100 100 100 85 100 100 100 100 100 100 100 100 100 100 66 100 69 34 44 0 0 3 1 0 2 0 1 4 5 5 2 4 11 91 100 88 77 58 89 100
100 100 90 100 100 100 100 100 100 100 100 93 89 99 99 100 100 100 98 100 100 100 100 100 56 24 0 0 0 0 1 0 0 3 0 3 0 0 1 6 5 5 12 89 96 100 80
94 90 100 100 63 16 99 84 100 100 100 100 42 93 100 100 100 100 100 100 100 100 100 64 99 5 5 2 0 0 0 1 0 0 0 0 0 0 5 5 5 29 80 10 5 9 2
77 6 96 90 15 11 11 39 20 97 100 100 74 97 84 100 100 100 100 100 99 98 100 23 85 5 5 10 5 5 8 3 0 1 0 0 0 0 0 4 2 6 99 96 11 14 5
18 16 80 8 5 33 6 83 66 69 100 100 96 84 100 100 100 100 100 100 100 100 100 2 7 5 5 5 5 4 55 5 5 5 5 5 0 0 0 0 4 5 4 22 39 24 5
19 100 44 56 5 4 4 0 11 5 100 100 99 100 100 100 100 100 100 100 100 100 100 18 0 1 28 100 15 4 5 39 6 73 39 5 0 0 1 2 2 3 4 2 3 5 2
7 28 96 24 5 3 18 100 45 78 100 76 98 100 100 59 100 88 67 100 100 94 100 31 0 0 1 0 0 0 65 98 34 56 70 4 0 6 68 67 94 40 68 95 43 5 3
6 95 73 7 5 4 48 100 10 90 52 100 100 100 100 100 100 100 100 100 96 100 100 9 39 93 10 0 39 76 39 16 5 85 8 97 79 68 99 98 99 100 100 100 99 61 2
17 53 100 42 1 1 81 100 47 13 93 100 100 100 100 79 97 100 100 100 100 100 20 42 89 46 5 21 67 96 76 100 49 11 5 7 98 100 100 100 100 100 100 99 54 12 4
100 100 99 100 88 68 86 100 40 92 100 100 100 100 100 100 100 100 100 100 100 100 100 69 98 98 99 100 100 100 100 100 100 95 100 100 100 100 100 100 100 100 100 100 73 26 76
100 100 100 100 100 83 99 100 100 100 100 100 100 100 100 100 100 100 100 100 23 93 100 100 100 98 70 100 100 100 100 100 100 100 100 100 100 100 100 100 100 100 100 100 86 100 100
87 100 100 100 88 100 100 100 100 100 100 100 100 100 100 100 100 100 100 100 100 48 96 100 100 99 100 100 100 100 100 100 100 100 100 100 100 100 100 100 100 100 100 100 89 81 99
5 100 100 100 100 100 100 100 100 100 100 100 100 100 100 100 100 100 100 100 100 93 100 100 97 95 100 100 100 100 100 100 100 100 100 100 100 100 100 100 100 100 100 100 100 79 12
13 84 100 100 100 100 100 100 100 100 100 100 100 100 100 100 100 100 100 100 100 100 100 100 100 100 100 100 100 100 100 100 100 100 100 100 100 100 100 100 100 100 100 100 87 23 15
59 81 100 100 100 100 100 100 100 100 100 100 100 100 100 100 100 100 100 100 100 100 100 100 100 100 100 100 100 100 100 100 100 100 100 100 100 100 100 100 100 100 100 57 5 5 12
84 100 100 100 100 100 100 100 100 100 100 100 100 100 100 100 100 100 100 100 100 100 100 100 100 100 100 100 100 100 100 100 100 100 100 100 100 100 100 100 100 81 6 5 4 5 3
100 98 100 100 100 100 100 100 100 100 100 100 100 88 99 100 100 100 100 100 98 100 100 100 100 100 98 100 100 100 100 100 100 100 100 100 100 100 100 91 11 5 4 1 5 5 11
100 54 100 100 100 100 100 100 100 100 100 100 100 100 100 100 99 100 100 100 100 100 100 100 97 98 100 100 100 100 100 100 100 100 100 100 100 73 40 5 1 3 0 0 0 0 0
100 66 100 100 100 100 100 100 100 100 100 100 100 100 100 99 100 100 100 100 100 100 100 100 100 92 100 100 100 100 100 100 100 100 100 32 23 7 7 5 0 0 1 34 67 95 86
100 100 100 100 100 100 100 100 100 100 100 100 100 100 100 98 88 100 100 100 100 100 100 100 100 100 100 100 93 95 100 100 100 100 93 83 22 4 5 1 0 0 47 55 96 97 58
100 100 100 100 100 100 100 100 100 100 100 100 100 100 100 100 99 100 100 100 100 100 100 100 95 99 98 100 100 100 100 92 34 6 4 3 5 5 4 26 0 7 68 87 97 90 100
100 100 100 100 100 100 100 100 100 100 100 100 100 100 100 100 100 100 100 100 100 100 100 100 100 100 100 100 100 100 95 27 81 99 97 82 7 39 39 7 8 96 65 100 100 100 100
100 100 100 100 100 100 100 100 100 100 100 100 100 100 100 100 100 100 100 100 100 100 100 99 100 100 85 54 14 10 28 26 100 100 98 100 100 100 98 97 12 86 100 100 100 100 100
100 100 100 100 100 100 100 100 100 100 100 100 100 100 100 100 100 100 100 96 100 88 75 100 96 85 43 26 10 76 78 92 88 90 86 93 97 100 100 97 96 100 100 100 100 100 100
100 100 100 100 100 100 100 100 100 100 100 100 100 100 100 100 100 100 100 100 100 83 98 100 100 88 8 6 31 57 70 80 83 97 100 99 100 100 100 100 100 100 100 100 100 100 100